Back to catalog

STARLINK-11166

AliveCommunicationsVLEO
NORAD 60062·PAYLOAD·🇺🇸 United States

Launched Jun 19, 2024 from Vandenberg Space Force Base

Loading…

Next Passes (next 24 hours)

TLE

FreshSource: CelesTrak SupGP

Epoch: Sep 14, 2026, 14:29 UTC

1 60062C 24113D   26257.60395833  .00037667  00000+0  31035-3 0  2574
2 60062  53.1567 339.8950 0001256  78.7001 254.1734 15.69684678    14

Track STARLINK-11166 in real time with AllMySat

Download on the App Store